Weather Roundup
Issued by NWS Springfield, MO

Home | Current Version | Previous Version | Text Only | Print | Product List | Glossary On
Versions: 1 2 3 4 5 6 7 8 9 10 11 12 13 14 15 16 17 18 19 20 21 22 23 24 25 26 27 28 29 30 31 32 33 34 35 36 37 38 39 40 41 42 43 44 45 46 47 48 49 50
000
NZUS99 KSGF 290607
HRRSGF

HOURLY WEATHER
NATIONAL WEATHER SERVICE SPRINGFIELD MO
100 AM CDT MON MAY 29 2017

......SGF CWA......

CITY           SKY/WX    TMP DP  RH WIND       PRES   REMARKS
SPRINGFIELD    CLOUDY    62  56  80 SW8       29.98S
6HR MIN TEMP:  61; 6HR MAX TEMP:  76;

JOPLIN         CLEAR     62  56  80 S3        30.00S
6HR MIN TEMP:  61; 6HR MAX TEMP:  79;

WEST PLAINS    CLOUDY    60  55  83 SW3       29.98S
6HR MIN TEMP:  58; 6HR MAX TEMP:  75;

ROLLA          CLEAR     60  56  86 SW9       29.94R
6HR MIN TEMP:  59; 6HR MAX TEMP:  74;

OSAGE BEACH    CLEAR     59  57  93 CALM      29.96S
BRANSON        CLOUDY    61  55  82 CALM      30.00S

......SURROUNDING SGF CWA......

CITY           SKY/WX    TMP DP  RH WIND       PRES   REMARKS
CHANUTE        CLEAR     61  50  67 CALM      29.99S
PARSONS        CLEAR     56  53  90 CALM      30.01S
COFFEYVILLE    CLEAR     60  57  89 S6        30.01R
EMPORIA        CLEAR     61  51  70 SW3       29.99R
GROVE OK       CLOUDY    61  61 100 CALM      30.02S
ROGERS AR      PTCLDY    62  56  80 SW5       30.03R
SILOAM SPRINGS CLOUDY    61  54  77 CALM      30.02R
HARRISON AR    CLOUDY    60  55  83 S3        30.01R
NEAR YELLVILLE CLOUDY    61  54  77 CALM      29.96S

......KANSAS AND MISSOURI......

CITY           SKY/WX    TMP DP  RH WIND       PRES   REMARKS
KANSAS CTY INT CLEAR     58  51  78 S7        29.94R
DOWNTOWN KC    CLEAR     64  54  69 SW6       29.93R
COLUMBIA       MOCLDY    63  56  78 S8        29.93R
SEDALIA        CLEAR     63  57  81 SW8       29.96R
ST JOSEPH      CLEAR     60  54  80 SW3       29.91F
ST LOUIS       PTCLDY    69  56  62 SW10      29.89S
SPIRIT OF STL  CLEAR     62  58  86 W9        29.89S
KIRKSVILLE     CLEAR     57  50  77 NW3       29.88F
WICHITA        CLEAR     59  49  69 SW6       30.01R
TOPEKA         CLEAR     61  55  81 CALM      29.94R
OLATHE         CLEAR     60  52  74 CALM      29.96R

......TENNESSEE......

CITY           SKY/WX    TMP DP  RH WIND       PRES   REMARKS
MEMPHIS        LGT RAIN  73  70  90 S5        29.95F
NASHVILLE      CLOUDY    69  64  84 W5        29.94R

......ARKANSAS.......

CITY           SKY/WX    TMP DP  RH WIND       PRES   REMARKS
FAYETTEVILLE   CLOUDY    56  56 100 S5        30.02S
FT SMITH       MOCLDY    67  59  75 CALM      30.00R
LITTLE ROCK    CLOUDY    70  66  87 NW6       29.98R

......OKLAHOMA.......

CITY           SKY/WX    TMP DP  RH WIND       PRES   REMARKS
TULSA          MOCLDY    67  56  67 SW3       29.99S
PONCA CITY     CLEAR     63  51  65 S3        30.03R
MCALESTER      CLOUDY    62  60  93 CALM      30.03F
OKLAHOMA CITY  PTCLDY    58  49  72 SW3       30.05S

......IOWA............

CITY           SKY/WX    TMP DP  RH WIND       PRES   REMARKS
DES MOINES     CLEAR     59  46  62 W7        29.84S
QUAD CITIES    CLEAR     62  50  64 SW5       29.80R

......ILLINOIS........

CITY           SKY/WX    TMP DP  RH WIND       PRES   REMARKS
QUINCY         MOCLDY    62  52  69 SW6       29.86R
CHICAGO        PTCLDY    63  49  60 SW5       29.76R




USA.gov is the U.S. government's official web portal to all federal, state and local government web resources and services.